星链-4124 (STARLINK-4124 )

导读 | 星芒AI

STARLINK-4124 是 SpaceX Starlink 卫星互联网项目中的一颗低轨通信卫星。该卫星属于 Starlink 群体部署计划的一部分,旨在为全球用户提供高速、低延迟的互联网服务。它运行在约 550 公里的近地轨道上,采用先进的通信技术,支持宽带数据传输。STARLINK-4124 的发射有助于扩大 Starlink 在偏远和网络覆盖不足地区的服务范围,提升全球互联网接入的普及性和稳定性。

基本信息
目录编号:
53245
目录名称:
STARLINK-4124
国际标识:
2022-086D
轨道中心:
EARTH
卫星名称:
星链-4124
卫星全名:
星链-4124 (STARLINK-4124 )
卫星状态:
已陨落 最后检测时间 2024-05-26
发射日期:
2022-07-24 UTC
国别 :
美国 (US)
星等 :
--
轨道信息
数据来源 国际轨道数据
星历时间: 2024-05-26T08:54:18+0800
轨道信息已过期532天
半长轴: 6572.967km
偏心率: 0.0006615
轨道倾角: 53.205°
近地点辐角 343.279°
升交点赤经 223.051°
平近点角 160.365°
近地点: 190.483km
远地点: 199.181km
周期: 88.390分钟
每日圈数: 16.291485
详细信息
固有亮度:
5
最大亮度:
2.5
卫星平台:
Starlink v1.5
覆盖范围:
全球
运营商:
太空探索技术公司
运营商所在国:
美国
制造商(研发单位):
太空探索技术公司
制造商所在国:
美国
使用方式:
暂无
卫星简介
星链(Starlink)计划是由太空探索技术公司(SpaceX)提出的一个巨型低轨卫星互联网星座项目,计划在2019年至2024年间在太空搭建由约1.2万颗卫星组成的“星链”网络,其中1584颗将部署在地球上空550千米处的近地轨道,并从2020年开始工作。该卫星已陨落。